SCP
-0 0 0 0 0 0 0 0 0 0 0 0 0 0 0 0 1 1 1 2 2 2 1 1 1 1 2 2 2 2 2 2 2 2 2 2 2 2 2 2 2 2 1
0 0 0 0 0 0 0 0 0 0 0 0 0 0 0 0 0 1 1 2 2 2 1 1 1 1 2 2 2 2 2 2 2 2 2 2 2 2 2 2 2 2 1
0 0 0 0 0 0 0 0 0 0 0 0 0 0 0 0 0 0 1 1 2 1 1 1 1 1 1 2 2 2 2 2 2 3 3 3 2 2 2 1 2 2 2
0 0 0 0 0 0 0 0 0 0 0 0 0 0 0 0 0 0 0 1 1 1 1 1 1 2 2 2 2 3 3 3 3 3 3 3 3 2 1 1 1 2 2
0 0 0 0 0 0 0 0 0 0 0 0 0 0 0 0 0 0 0 0 1 1 1 1 1 2 2 2 2 3 3 3 3 3 3 3 3 2 1 1 1 1 1
0 0 0 0 0 0 0 0 0 0 0 0 0 0 0 0 0 0 0 0 0 1 1 1 1 1 2 2 2 2 3 3 3 3 3 3 3 2 2 1 1 1 1
0 0 0 0 0 0 0 0 0 0 0 0 0 0 -0 0 0 0 0 0 0 0 1 1 1 1 1 2 2 2 3 3 3 3 3 3 3 3 2 2 1 1 1
0 0 0 0 0 0 0 0 0 0 0 0 0 0 -0 -0 0 0 0 0 0 0 1 1 1 1 1 1 1 2 2 3 3 3 3 3 3 3 2 2 2 1 1
0 0 0 0 0 0 0 0 0 0 0 0 0 0 0 0 0 0 0 0 0 0 0 1 1 1 1 1 1 1 2 2 3 4 4 3 3 3 3 3 2 2 2
0 0 0 0 0 0 0 0 0 0 0 0 0 0 0 0 0 0 0 0 0 0 0 0 1 1 1 1 1 1 1 2 3 4 4 4 3 3 3 3 3 2 2
0 0 0 0 0 0 0 0 0 0 0 0 0 0 0 0 0 0 0 0 0 0 0 0 1 1 1 1 2 1 1 2 3 4 4 4 4 3 3 3 3 3 3
0 0 0 0 0 0 0 0 0 0 0 0 0 0 0 0 0 0 0 0 0 0 0 0 1 1 1 1 1 1 1 1 2 3 3 4 4 4 3 3 3 3 4
0 0 0 0 0 0 0 0 0 0 0 0 0 0 0 0 0 0 0 0 0 0 0 0 0 1 1 1 1 1 1 1 1 2 2 3 3 3 3 3 3 3 3
0 0 0 0 0 0 0 0 0 0 0 0 0 0 0 0 0 0 0 0 0 0 0 0 0 0 1 1 1 1 1 1 1 1 1 2 2 2 3 3 3 3 3
0 0 0 0 0 0 0 0 0 0 0 0 0 0 0 0 0 0 0 0 0 0 0 0 0 0 0 1 1 1 1 1 1 1 1 1 1 1 2 2 2 3 3
0 0 0 0 0 0 0 0 0 0 0 0 0 0 0 0 0 0 0 0 0 0 0 0 0 0 0 1 1 1 1 1 1 1 1 0 0 1 1 1 2 2 2
0 0 0 0 0 0 0 0 0 0 0 0 0 0 0 0 0 0 0 0 0 0 0 0 0 0 0 0 1 1 1 1 1 1 1 0 0 0 0 1 1 1 2
0 0 0 0 0 0 0 0 0 0 0 0 0 0 0 0 0 0 0 0 0 0 0 0 0 0 0 0 0 0 1 1 1 1 1 0 0 0 0 0 1 1 1
0 0 0 0 0 0 0 0 0 0 0 0 0 0 0 0 0 0 0 0 0 0 0 0 0 0 0 0 0 0 0 1 1 1 1 1 0 0 0 0 0 0 1
0 0 0 0 0 0 0 0 0 0 0 0 0 0 0 0 0 0 0 0 0 0 0 0 0 0 0 0 0 0 0 1 1 1 1 1 1 0 0 0 0 0 0
0 0 0 0 0 0 0 0 0 0 0 0 0 0 0 0 0 0 0 0 0 0 0 0 0 0 0 0 0 0 0 1 1 1 1 1 0 0 0 0 0 0 0
0 0 0 0 0 0 0 0 0 0 0 0 0 0 0 0 0 0 0 0 0 0 0 0 0 0 0 0 0 0 0 0 1 1 1 0 0 0 0 0 0 0 0
0 0 0 0 0 0 0 0 0 0 0 0 0 0 0 0 0 0 0 0 0 0 0 0 0 0 0 0 0 0 0 0 0 0 0 0 0 0 0 0 0 0 0
0 0 0 0 0 0 0 0 0 0 0 0 0 0 0 0 0 0 0 0 0 0 0 0 0 0 0 0 0 0 0 0 0 0 0 0 0 0 0 0 0 0 0
0 0 0 0 0 0 0 0 0 0 0 0 0 0 0 0 0 0 0 0 0 0 0 0 0 0 0 0 0 0 0 0 0 0 0 0 0 0 0 0 0 0 0
0 0 0 0 0 0 0 0 0 0 0 0 0 0 0 0 0 0 0 0 0 0 0 0 0 0 0 0 0 0 0 0 0 0 0 0 0 0 0 0 0 0 0
Wind_Speed
10 11 10 10 10 9 10 10 10 12 13 13 12 13 11 10 9 7 5 13 15 15 15 15 15 16 16 16 15 15 17 18 17 15 14 12 11 11 10 9 10 11 12
9 10 11 10 10 10 10 10 11 11 11 11 13 14 13 11 10 9 6 9 16 17 16 16 17 17 18 18 17 16 17 19 19 17 16 14 13 12 12 11 10 11 12
10 10 9 9 9 10 11 10 10 9 11 12 13 14 13 13 13 12 8 5 9 14 16 17 18 18 19 19 19 17 17 19 20 19 17 16 14 14 13 12 11 11 12
13 11 10 9 11 10 10 10 9 10 10 11 11 11 12 12 15 15 10 7 6 8 12 16 17 19 20 20 20 18 16 18 20 20 19 17 16 15 15 14 13 13 12
13 12 10 10 12 10 10 11 10 10 11 11 12 12 10 10 12 15 14 11 7 6 7 13 18 18 19 20 20 20 17 17 20 21 20 18 18 17 16 16 15 14 13
12 11 9 13 13 10 9 10 12 11 10 11 13 12 11 12 11 12 14 11 8 7 6 7 9 12 17 18 19 20 20 18 19 21 22 21 21 20 19 18 17 16 15
12 10 9 11 12 11 12 13 12 13 11 10 10 11 11 12 14 11 11 10 9 7 6 7 6 6 8 17 18 19 22 21 21 22 23 24 23 22 21 20 19 18 17
12 12 10 9 11 10 12 13 13 10 10 10 10 10 8 8 6 8 8 9 10 7 7 8 8 8 6 6 11 18 19 22 23 23 24 24 25 25 24 23 22 20 19
11 10 10 9 10 9 9 12 12 12 11 9 7 6 6 7 12 11 11 9 6 5 7 7 9 9 8 6 7 15 18 19 22 24 24 25 26 27 26 24 23 22 20
11 10 10 10 10 9 10 11 12 11 12 10 7 6 7 8 7 9 12 10 12 11 8 7 7 9 9 6 7 12 17 19 21 23 24 25 27 27 27 25 23 22 20
10 11 11 10 10 9 10 12 13 12 10 10 9 8 8 8 10 9 13 15 11 9 9 8 6 6 8 7 6 8 14 17 21 21 20 23 26 27 27 26 25 22 21
8 10 13 10 11 9 11 12 12 13 11 12 10 8 8 8 8 8 10 14 14 12 13 10 8 5 4 5 7 9 11 13 15 17 16 17 20 23 25 26 25 24 24
9 10 13 11 10 10 12 12 13 13 13 13 11 8 8 9 10 10 11 12 15 13 10 11 8 5 3 3 4 8 9 10 10 10 12 12 13 16 20 22 24 26 26
9 10 12 12 12 13 14 12 12 13 12 13 13 11 9 9 10 11 11 11 12 12 10 10 8 7 4 4 6 10 6 10 10 10 10 11 11 12 14 17 20 24 25
11 12 12 13 13 14 14 13 11 14 13 13 12 11 10 10 10 11 12 11 11 12 12 9 6 5 3 3 7 6 6 11 13 13 13 13 13 13 13 15 16 20 23
12 12 12 13 14 14 14 13 13 14 16 14 11 11 11 10 11 11 12 12 12 13 12 7 6 5 6 5 4 5 6 10 14 16 16 15 14 14 14 15 15 18 21
12 12 13 14 15 15 14 13 15 17 17 14 11 12 13 14 11 10 10 11 12 12 13 11 9 8 7 6 3 2 3 4 6 14 16 16 16 16 15 15 15 17 21
10 12 13 14 16 16 15 15 16 18 16 13 12 13 13 12 14 11 9 10 9 10 10 11 8 7 7 5 4 3 3 4 4 10 14 14 15 16 15 15 16 19 22
10 11 12 14 15 16 16 15 14 18 14 11 10 12 13 14 13 11 10 8 7 7 6 6 7 5 4 3 3 2 3 3 4 6 9 11 12 14 15 18 20 22 24
11 10 10 13 15 16 16 14 15 16 11 8 9 11 12 13 13 13 9 7 4 4 3 4 5 4 3 3 2 3 3 3 4 4 5 6 11 14 19 23 25 26 26
14 11 11 14 15 14 13 17 16 10 6 7 9 11 12 17 20 17 12 11 8 4 3 2 3 3 2 2 2 3 4 3 3 4 6 6 8 9 11 20 25 29 29
11 11 12 14 15 15 25 29 15 7 7 8 9 10 12 14 19 23 25 25 23 14 8 5 3 2 1 2 2 2 4 5 5 5 7 7 7 9 9 10 22 27 28
9 10 12 13 13 17 28 27 19 11 10 9 9 9 11 14 17 14 19 23 23 26 23 11 8 7 5 5 4 3 4 6 4 6 9 8 7 10 8 14 24 26 26
8 8 10 12 13 18 28 25 21 12 10 10 11 11 12 13 17 17 15 15 15 16 19 13 12 12 12 9 5 4 3 3 5 4 6 9 7 9 10 12 21 23 24
8 8 8 10 12 16 25 25 21 10 10 11 12 14 14 12 24 25 16 15 15 15 19 24 24 22 25 27 19 6 2 6 8 4 3 7 8 9 9 9 16 24 24
8 10 10 10 11 12 23 25 21 10 10 9 10 12 20 22 26 24 15 14 15 14 15 16 18 21 19 22 27 15 8 1 6 5 2 6 8 8 9 6 7 10 15
Wind_Direction
349 346 336 337 335 344 341 332 328 331 329 323 321 319 313 303 285 269 247 194 185 191 204 219 228 229 227 224 223 216 207 198 193 190 186 186 180 171 171 173 177 178 175
347 343 336 334 339 342 334 328 330 331 327 325 323 321 316 307 296 280 262 212 199 195 202 216 228 234 233 228 224 220 212 204 197 191 187 186 183 178 176 177 178 178 176
347 342 335 333 340 335 330 331 330 334 332 329 324 321 317 315 310 296 274 240 213 209 204 212 223 231 236 235 229 224 216 209 200 191 186 184 184 183 181 180 179 179 177
349 342 335 336 340 335 332 333 338 340 335 329 323 316 311 307 305 301 291 267 226 209 211 212 218 226 232 236 235 229 220 211 203 192 185 184 185 187 188 185 182 180 179
347 340 333 338 338 334 335 335 339 339 334 329 320 309 305 303 300 298 293 282 261 224 201 208 213 220 227 232 235 233 224 213 202 193 186 185 188 189 191 189 185 182 182
344 336 335 339 336 332 332 331 334 335 329 326 320 314 306 294 285 279 280 278 266 247 217 203 202 218 223 227 231 233 228 216 202 197 191 188 191 191 192 191 187 185 185
341 336 343 338 335 331 330 330 331 329 329 329 325 320 297 276 259 257 258 261 258 251 235 215 198 195 211 224 227 229 230 221 207 201 197 193 192 191 192 190 188 187 188
338 339 341 336 331 327 327 328 328 326 327 334 326 321 316 305 338 297 275 252 243 237 238 228 210 205 198 198 219 223 229 227 214 205 201 197 195 194 195 191 188 188 189
333 334 336 334 327 326 322 324 323 327 322 319 319 318 319 327 329 307 318 317 312 266 237 230 217 209 206 194 196 215 219 227 224 211 203 200 198 197 195 193 190 188 188
329 333 335 332 328 325 322 322 324 319 316 312 312 295 287 297 297 310 311 316 325 313 290 251 224 208 203 198 197 199 210 217 225 220 208 201 201 201 200 195 193 190 188
328 333 334 331 326 322 323 322 320 314 310 304 303 303 294 282 270 278 292 301 308 306 313 305 279 221 198 193 194 196 204 212 219 221 214 204 203 204 203 198 195 191 189
329 332 331 328 322 322 324 320 316 312 306 301 298 298 296 285 275 270 275 289 298 304 313 305 300 275 210 182 189 195 202 212 219 216 214 207 204 204 204 200 197 193 191
330 326 329 324 322 324 322 321 319 313 307 301 298 294 290 284 277 269 269 276 285 293 296 296 289 281 239 180 179 193 203 208 216 215 211 211 209 208 206 201 197 195 194
322 322 327 324 325 326 323 320 318 314 311 307 300 296 293 285 276 265 259 262 271 280 281 274 295 289 261 197 187 186 197 207 217 220 217 217 217 216 211 205 199 194 193
323 326 326 329 328 325 321 322 318 314 314 308 300 296 295 290 279 267 255 245 249 262 273 276 276 277 285 223 186 177 185 203 215 223 223 219 218 218 215 209 201 193 189
322 324 329 330 327 324 322 324 319 313 313 307 303 304 302 296 286 270 252 240 236 244 257 271 276 302 331 327 212 175 189 204 212 218 223 222 218 216 214 211 203 194 186
324 328 331 330 328 324 323 323 320 316 313 309 310 312 308 304 295 282 259 240 233 232 245 258 268 281 293 307 293 222 199 201 206 211 216 220 219 216 212 208 200 188 178
324 329 330 329 327 324 320 320 318 318 313 313 319 318 317 314 309 298 280 252 237 230 236 247 255 260 261 265 262 242 221 203 196 203 207 213 216 215 207 196 184 172 164
323 326 327 327 323 319 316 313 311 312 310 309 319 324 325 325 321 312 297 278 255 244 237 247 253 250 252 248 251 248 228 203 188 183 188 195 198 193 181 168 159 152 146
322 321 324 322 317 314 309 306 308 308 307 308 327 333 333 338 336 330 326 321 298 274 260 256 256 251 244 245 216 210 215 192 177 160 148 143 147 150 151 147 141 135 130
323 319 320 318 314 314 312 314 313 316 321 334 345 349 348 360 3 3 8 8 4 353 324 287 264 249 235 224 219 193 201 179 162 152 139 133 125 122 127 128 126 125 124
319 321 320 317 317 322 322 328 346 4 5 5 8 5 359 6 14 11 19 24 25 24 17 4 338 315 314 317 291 224 195 180 176 165 142 123 120 117 115 115 122 122 123
321 321 318 319 320 321 332 345 24 32 20 15 19 20 15 11 24 14 15 22 21 24 30 27 19 13 3 348 324 276 224 186 158 155 137 120 118 116 117 124 126 126 125
318 313 315 322 327 331 342 1 25 24 22 22 24 26 24 16 27 26 17 20 20 19 22 26 27 21 14 8 338 295 272 152 111 105 125 118 116 112 113 118 124 126 127
319 315 319 325 332 334 349 13 30 15 21 23 20 22 25 23 30 31 22 20 21 17 17 26 29 31 28 27 23 11 356 178 142 101 62 106 117 100 85 94 113 116 118
328 329 332 332 333 337 355 16 36 25 24 20 16 12 20 29 29 35 27 20 25 15 12 14 20 22 24 25 27 24 2 275 136 116 48 112 123 111 92 48 70 101 108